779  
ASUS41 KBTV 051210  
RWRBTV  
VERMONT REGIONAL WEATHER ROUNDUP  
NATIONAL WEATHER SERVICE BURLINGTON VT  
800 AM EDT TUE JUL 05 2022  
 
NOTE: "FAIR" INDICATES FEW OR NO CLOUDS BELOW 12,000 FEET WITH NO  
SIGNIFICANT WEATHER AND/OR S TO VISIBILITY
.  
 
* THESE REPORTS ARE NOT UNDER NWS QUALITY CONTROL AND/OR DO NOT  
REPORT WEATHER SUCH AS PRECIPITATION AND FOG.
 
 
VTZ001>019-051300-  
_____VERMONT_____  
 
 
CITY SKY/WX TMP DP RH WIND PRES REMARKS
 
BURLINGTON CLOUDY 65 57 75 CALM 30.05S  
6HR MIN TEMP: 58; 6HR MAX TEMP: 65;  
 
MONTPELIER PTSUNNY 59 53 80 CALM 30.13R  
6HR MIN TEMP: 55; 6HR MAX TEMP: 59;  
 
MORRISVILLE PTSUNNY 60 54 80 CALM 30.08S  
6HR MIN TEMP: 50; 6HR MAX TEMP: 60;  
 
ST. JOHNSBURY* N/A 56 51 84 MISG 30.08F  
6HR MIN TEMP: 52; 6HR MAX TEMP: 56;  
 
LYNDONVILLE* FAIR 56 52 88 CALM 30.12R  
6HR MIN TEMP: 49; 6HR MAX TEMP: 56;  
 
MIDDLEBURY* FAIR 62 57 83 CALM 30.07S  
6HR MIN TEMP: 55; 6HR MAX TEMP: 62;  
 
RUTLAND* LGT RAIN 61 55 81 CALM 30.09S  
6HR MIN TEMP: 57; 6HR MAX TEMP: 62; 6HR PCP: TRACE;  
 
SPRINGFIELD PTSUNNY 60 57 89 CALM 30.10S  
6HR MIN TEMP: 57; 6HR MAX TEMP: 60; 6HR PCP: TRACE;  
 
HIGHGATE* FAIR 66 59 76 CALM 30.03F  
6HR MIN TEMP: 57; 6HR MAX TEMP: 66;  
 
NEWPORT* FAIR 60 57 91 S3 30.09R  
6HR MIN TEMP: 51; 6HR MAX TEMP: 60;  
 
BENNINGTON CLOUDY 63 56 78 CALM 30.09S  
6HR MIN TEMP: 56; 6HR MAX TEMP: 63; 6HR PCP: TRACE;  
 
LAKE EDEN* N/A 59 N/A N/A CALM N/A  
 
_____LAKE CHAMPLAIN_____  
 
 
CITY SKY/WX TMP DP RH WIND PRES REMARKS
 
COLCHESTER RF* N/A 57 50 77 S18 N/A  
 

 
 
NYZ007-026>031-035-052-083-087-051300-  
_____NORTHERN NEW YORK_____  
 
 
CITY SKY/WX TMP DP RH WIND PRES REMARKS
 
PLATTSBURGH PTSUNNY 65 57 75 CALM 30.03F  
6HR MIN TEMP: 54; 6HR MAX TEMP: 66;  
 
SARANAC LAKE CLOUDY 58 55 90 CALM 30.06F  
6HR MIN TEMP: 49; 6HR MAX TEMP: 58;  
 
MASSENA CLOUDY 63 54 72 S3 30.02F  
6HR MIN TEMP: 59; 6HR MAX TEMP: 63; 6HR PCP: TRACE;  
 
OGDENSBURG* PTSUNNY 63 59 88 CALM 30.00S  
POTSDAM* CLOUDY 61 57 88 CALM 30.02F  
WATERTOWN CLOUDY 65 56 72 N7 30.00S  
6HR MIN TEMP: 61; 6HR MAX TEMP: 65; 6HR PCP: TRACE;  
 
FT DRUM LGT RAIN 64 56 78 SE5 30.01S  
6HR MIN TEMP: 62; 6HR MAX TEMP: 65; 6HR PCP: TRACE;  
 
ALBANY CLOUDY 69 56 62 CALM 30.07S  
6HR MIN TEMP: 66; 6HR MAX TEMP: 69; 6HR PCP: TRACE;  
 
GLENS FALLS LGT RAIN 63 58 83 CALM 30.07S  
6HR MIN TEMP: 56; 6HR MAX TEMP: 63; 6HR PCP: TRACE;  
 

 
NHZ002-005-011-051300-  
_____NEW HAMPSHIRE_____  
 
 
CITY SKY/WX TMP DP RH WIND PRES REMARKS
 
LEBANON PTSUNNY 62 54 74 CALM 30.09F  
6HR MIN TEMP: 57; 6HR MAX TEMP: 62;  
 
KEENE CLOUDY 62 56 80 CALM 30.11S  
6HR MIN TEMP: 57; 6HR MAX TEMP: 62;  
 
PLYMOUTH FAIR 57 54 88 CALM 30.10S  
6HR MIN TEMP: 53; 6HR MAX TEMP: 57;  
 
WHITEFIELD PTSUNNY 53 50 89 CALM 30.10S  
6HR MIN TEMP: 43; 6HR MAX TEMP: 54;  
 

 
 
_____REGIONAL QUEBEC LOCATIONS_____  
 
 
CITY SKY/WX TMP DP RH WIND PRES REMARKS
 
MONTREAL LGT RAIN 68 57 68 S5 30.01S  
QUEBEC CITY PTSUNNY 61 59 94 W6 30.01F  
SHERBROOKE MOSUNNY 61 54 77 CALM 30.05S  
 
_____REGIONAL ONTARIO LOCATIONS_____  
 
 
CITY SKY/WX TMP DP RH WIND PRES REMARKS
 
OTTAWA LGT RAIN 64 59 82 SW3 30.01S  
 
______KEY______  
VSB - VISIBILITY IN MILES  
WCI - WIND CHILL INDEX  
HX - HEAT INDEX  

 
NNNN  
 
 
CLICK HERE TO GO TO PREVIOUS BULLETINS.

The Nexlab VT Page
The Nexlab NY Page Main Text Page